Weather History for Clarinda, IA

Change the Weather History Date:

Tuesday, November 8, 2011

  Actual Average Record
Temperature  
Mean Temperature 38 °F -  
Max Temperature 44 °F 51 °F 82 °F (1999)
Min Temperature 32 °F 32 °F 23 °F (2013)
Degree Days  
Heating Degree Days 27    
Moisture  
Dew Point 39 °F    
Average Humidity 91    
Maximum Humidity 100    
Minimum Humidity 81    
Precipitation  
Precipitation 0.77 in - - ()
Sea Level Pressure  
Sea Level Pressure 30.01 in    
Wind  
Wind Speed 14 mph (NNE)    
Max Wind Speed 23 mph    
Max Gust Speed 29 mph    
Visibility 9 miles    
Events Rain , Snow    
Averages and records for this station are not official NWS values.
T = Trace of Precipitation, MM = Missing Value Source: NWS Daily Summary

Daily Weather History Graph

Daily Weather History Graph

Search for Another Location

Airport:

Trip Planner

Search our weather history database for the weather conditions in past years. The results will help you decide how hot, cold, wet, or windy it might be!

Date:

Astronomy

Nov. 08, 2011 Rise Set
Actual Time 6:58 AM CST 5:08 PM CST
Civil Twilight 6:29 AM CST 5:37 PM CST
Nautical Twilight 5:56 AM CST 6:10 PM CST
Astronomical Twilight 5:24 AM CST 6:42 PM CST
Moon 3:49 PM CST (11/8) 4:57 AM CST (11/8)
Length of Visible Light 11h 08m
Length of Day
10h 10m
Waxing Gibbous, 96% of the Moon is Illuminated
Nov 8
Waxing Gibbous
Nov 10
Full
Nov 18
Last Quarter
Nov 25
New
Dec 2
First Quarter

Hourly Weather History & Observations

Time (CST) Temp. Windchill Dew Point Humidity Pressure Visibility Wind Dir Wind Speed Gust Speed Precip Events Conditions
12:15 AM 44.6 °F 37.8 °F 39.2 °F 81% 30.03 in 10.0 mi NNE 15.0 mph 18.4 mph N/A   Overcast
12:35 AM 44.6 °F 38.4 °F 39.2 °F 81% 30.03 in 10.0 mi NNE 12.7 mph 20.7 mph N/A   Drizzle
12:55 AM 42.8 °F 36.6 °F 41.0 °F 93% 30.01 in 10.0 mi NNE 11.5 mph - 0.01 in Rain Rain
1:15 AM 42.8 °F 35.8 °F 41.0 °F 93% 30.02 in 7.0 mi NNE 13.8 mph - 0.01 in   Drizzle
1:35 AM 42.8 °F 36.2 °F 41.0 °F 93% 30.02 in 7.0 mi NNE 12.7 mph - 0.02 in   Drizzle
1:55 AM 42.8 °F 35.8 °F 41.0 °F 93% 30.02 in 10.0 mi NNE 13.8 mph - 0.02 in   Light Drizzle
2:15 AM 42.8 °F 35.4 °F 41.0 °F 93% 30.00 in 10.0 mi NE 15.0 mph 20.7 mph N/A   Overcast
2:35 AM 42.8 °F 35.4 °F 41.0 °F 93% 30.01 in 10.0 mi NNE 15.0 mph - N/A   Overcast
3:15 AM 42.8 °F 36.2 °F 41.0 °F 93% 30.00 in 10.0 mi NE 12.7 mph 21.9 mph N/A   Overcast
3:35 AM 42.8 °F 36.2 °F 41.0 °F 93% 30.00 in 10.0 mi NE 12.7 mph 23.0 mph N/A   Overcast
3:55 AM 42.8 °F 35.4 °F 41.0 °F 93% 30.01 in 10.0 mi NNE 15.0 mph - N/A   Overcast
4:15 AM 42.8 °F 35.4 °F 41.0 °F 93% 30.00 in 7.0 mi NNE 15.0 mph 20.7 mph N/A   Drizzle
4:35 AM 42.8 °F 35.4 °F 41.0 °F 93% 30.00 in 7.0 mi NNE 15.0 mph - 0.01 in   Light Drizzle
4:55 AM 42.8 °F 35.4 °F 41.0 °F 93% 29.99 in 7.0 mi NNE 15.0 mph 24.2 mph 0.01 in Rain Light Rain
5:15 AM 42.8 °F 34.8 °F 39.2 °F 87% 29.99 in 7.0 mi NE 17.3 mph 26.5 mph N/A   Overcast
5:35 AM 42.8 °F 35.8 °F 39.2 °F 87% 29.99 in 10.0 mi NE 13.8 mph 20.7 mph N/A   Overcast
5:55 AM 42.8 °F 34.8 °F 39.2 °F 87% 30.00 in 10.0 mi NE 17.3 mph 20.7 mph N/A   Overcast
6:15 AM 42.8 °F 35.1 °F 39.2 °F 87% 30.01 in 7.0 mi NNE 16.1 mph 20.7 mph N/A   Overcast
6:35 AM 42.8 °F 34.8 °F 39.2 °F 87% 30.01 in 7.0 mi NE 17.3 mph 23.0 mph N/A   Overcast
6:55 AM 42.8 °F 35.8 °F 39.2 °F 87% 30.02 in 10.0 mi NE 13.8 mph - N/A   Overcast
7:15 AM 42.8 °F 35.4 °F 39.2 °F 87% 30.01 in 10.0 mi NE 15.0 mph - N/A   Overcast
7:35 AM 42.8 °F 36.6 °F 39.2 °F 87% 30.01 in 10.0 mi NE 11.5 mph 20.7 mph N/A   Drizzle
7:55 AM 42.8 °F 36.6 °F 39.2 °F 87% 30.00 in 10.0 mi NE 11.5 mph 19.6 mph N/A   Light Drizzle
8:15 AM 42.8 °F 36.6 °F 39.2 °F 87% 30.02 in 10.0 mi NE 11.5 mph 19.6 mph N/A   Light Drizzle
8:35 AM 42.8 °F 37.0 °F 41.0 °F 93% 30.03 in 10.0 mi NE 10.4 mph 18.4 mph N/A   Overcast
8:55 AM 42.8 °F 37.0 °F 41.0 °F 93% 30.04 in 10.0 mi NNE 10.4 mph - N/A   Overcast
9:15 AM 42.8 °F 36.2 °F 41.0 °F 93% 30.04 in 10.0 mi NE 12.7 mph - N/A   Overcast
9:35 AM 42.8 °F 36.6 °F 39.2 °F 87% 30.03 in 10.0 mi NE 11.5 mph - N/A   Overcast
9:55 AM 44.6 °F 37.4 °F 39.2 °F 81% 30.03 in 10.0 mi NE 16.1 mph - N/A   Overcast
10:15 AM 42.8 °F 35.4 °F 39.2 °F 87% 30.02 in 10.0 mi NNE 15.0 mph 19.6 mph N/A   Overcast
10:35 AM 42.8 °F 37.5 °F 39.2 °F 87% 30.03 in 10.0 mi NNE 9.2 mph 19.6 mph N/A   Overcast
10:55 AM 42.8 °F 37.0 °F 39.2 °F 87% 30.02 in 10.0 mi NE 10.4 mph 19.6 mph N/A   Overcast
11:15 AM 42.8 °F 35.8 °F 41.0 °F 93% 30.02 in 10.0 mi NE 13.8 mph 18.4 mph N/A   Overcast
11:35 AM 44.6 °F 37.8 °F 41.0 °F 87% 30.00 in 10.0 mi NE 15.0 mph 20.7 mph N/A   Overcast
11:55 AM 44.6 °F 37.8 °F 41.0 °F 87% 30.00 in 10.0 mi NE 15.0 mph 19.6 mph N/A   Overcast
12:15 PM 42.8 °F 36.2 °F 41.0 °F 93% 30.00 in 10.0 mi NNE 12.7 mph 16.1 mph N/A   Light Drizzle
12:35 PM 42.8 °F 36.2 °F 41.0 °F 93% 30.00 in 10.0 mi NNE 12.7 mph - N/A   Overcast
12:55 PM 42.8 °F 36.6 °F 41.0 °F 93% 30.00 in 10.0 mi NNE 11.5 mph 17.3 mph N/A   Drizzle
1:15 PM 42.8 °F 36.6 °F 41.0 °F 93% 30.00 in 7.0 mi NNE 11.5 mph - 0.01 in Rain Light Rain
1:35 PM 42.8 °F 35.8 °F 41.0 °F 93% 30.00 in 5.0 mi NNE 13.8 mph - 0.05 in Rain Rain
1:55 PM 42.8 °F 36.6 °F 41.0 °F 93% 30.00 in 10.0 mi NNE 11.5 mph - 0.08 in Rain Light Rain
2:15 PM 42.8 °F 37.5 °F 41.0 °F 93% 30.00 in 10.0 mi NNE 9.2 mph - 0.03 in Rain Light Rain
2:35 PM 42.8 °F 35.8 °F 41.0 °F 93% 29.96 in 10.0 mi NNE 13.8 mph - 0.09 in Rain Rain
2:55 PM 42.8 °F 36.6 °F 41.0 °F 93% 29.97 in 10.0 mi NNE 11.5 mph - 0.12 in Rain Light Rain
3:15 PM 42.8 °F 36.2 °F 41.0 °F 93% 29.98 in 7.0 mi NNE 12.7 mph 18.4 mph 0.03 in Rain Rain
3:35 PM 42.8 °F 37.5 °F 41.0 °F 93% 29.99 in 7.0 mi NNE 9.2 mph 18.4 mph 0.06 in Rain Rain
3:55 PM 42.8 °F 35.4 °F 41.0 °F 93% 29.98 in 10.0 mi NNE 15.0 mph 18.4 mph 0.12 in Rain Rain
4:15 PM 42.8 °F 35.8 °F 39.2 °F 87% 29.97 in 10.0 mi North 13.8 mph - 0.04 in Rain Rain
4:35 PM 42.8 °F 35.1 °F 39.2 °F 87% 29.98 in 10.0 mi North 16.1 mph 23.0 mph 0.08 in Rain Light Rain
4:55 PM 41.0 °F 32.8 °F 39.2 °F 93% 29.98 in 10.0 mi North 16.1 mph 23.0 mph 0.12 in Rain Rain
5:15 PM 39.2 °F 29.3 °F 37.4 °F 93% 29.98 in 7.0 mi North 20.7 mph 26.5 mph 0.04 in Rain Light Rain
5:35 PM 39.2 °F 28.7 °F 37.4 °F 93% 29.98 in 10.0 mi North 23.0 mph 27.6 mph 0.07 in Rain Light Rain
5:55 PM 37.4 °F 26.6 °F 37.4 °F 100% 29.99 in 7.0 mi North 21.9 mph 28.8 mph 0.08 in Rain Light Rain
6:15 PM 37.4 °F 28.2 °F 35.6 °F 93% 30.02 in 7.0 mi North 16.1 mph 25.3 mph 0.02 in   Overcast
6:35 PM 35.6 °F 25.2 °F 33.8 °F 93% 30.03 in 4.0 mi North 18.4 mph 25.3 mph 0.06 in Snow Light Snow
6:55 PM 33.8 °F 23.2 °F 32.0 °F 93% 30.02 in 5.0 mi North 17.3 mph 20.7 mph 0.10 in Snow Light Snow
7:15 PM 33.8 °F 24.3 °F 32.0 °F 93% 30.02 in 5.0 mi North 13.8 mph - 0.04 in Snow Light Snow
7:35 PM 32.0 °F 22.5 °F 32.0 °F 100% 30.01 in 7.0 mi North 12.7 mph 17.3 mph 0.06 in Snow Light Snow
7:55 PM 33.8 °F 25.3 °F 32.0 °F 93% 30.00 in 5.0 mi North 11.5 mph - 0.08 in Snow Light Snow
8:15 PM 32.0 °F 22.5 °F 32.0 °F 100% 30.00 in 2.0 mi North 12.7 mph 21.9 mph 0.01 in Snow Light Snow
8:35 PM 32.0 °F 23.0 °F 32.0 °F 100% 29.99 in 1.5 mi North 11.5 mph 18.4 mph 0.03 in Snow Light Snow
8:55 PM 32.0 °F 22.1 °F 32.0 °F 100% 30.00 in 3.0 mi North 13.8 mph - 0.08 in Snow Light Snow
9:15 PM 32.0 °F 21.6 °F 32.0 °F 100% 29.99 in 3.0 mi North 15.0 mph 20.7 mph 0.05 in Snow Light Snow
9:35 PM 32.0 °F 22.5 °F 32.0 °F 100% 30.00 in 1.5 mi North 12.7 mph 25.3 mph 0.08 in Snow Light Snow
9:55 PM 32.0 °F 22.1 °F 30.2 °F 93% 29.99 in 1.2 mi North 13.8 mph 25.3 mph 0.10 in Snow Light Snow
10:15 PM 32.0 °F 21.2 °F 32.0 °F 100% 29.99 in 3.0 mi North 16.1 mph 23.0 mph 0.12 in Snow Light Snow
10:35 PM 32.0 °F 23.0 °F 32.0 °F 100% 29.98 in 2.5 mi North 11.5 mph 21.9 mph 0.17 in Snow Light Snow
10:55 PM 32.0 °F 24.2 °F 32.0 °F 100% 30.00 in 2.5 mi North 9.2 mph 17.3 mph 0.24 in Snow Light Snow
11:15 PM 33.8 °F 25.8 °F 32.0 °F 93% 30.00 in 4.0 mi North 10.4 mph - 0.07 in Snow Light Snow
11:35 PM 33.8 °F 23.5 °F 32.0 °F 93% 29.99 in 3.0 mi North 16.1 mph 27.6 mph 0.14 in Snow Light Snow
11:55 PM 32.0 °F 22.5 °F 32.0 °F 100% 30.00 in 2.5 mi North 12.7 mph 21.9 mph 0.17 in Snow Light Snow